www.pogodaiklimat.ru

Погода и климат >> Архив погоды >> Корея >> Андон


ПОГОДА в Андоне

  • Прогноз погоды в Андоне
  • Монитор погоды в Андоне

АРХИВ ПОГОДЫ в Андоне

Время (UTC), дата Ветер
(напр.,м/с)
 
Видим.   Явления Облачность Т
(С)
Тd
(С)
f
(%)
Тe
(С)
Тes
(С)
Комфортность P
(гПа)
Po
(гПа)
Тmin
(С)
Tmax
(С)
R
(мм)
R24
(мм)
S
(см)
21 9.09 штиль 0 12 км 9/0
[Ac trans Ci sp]
+21.8 +20.9 95 +28 +28 душно 1013.0 996.8
00 10.09 СЗ 1 17 км 8/4 1000 м
[Sc Ci sp]
+24.8 +22.2 85 +32 +36 очень
душно
1014.2 998.1 +21.7 0.4
03 10.09 З 2 19 км 5/3 1000 м
[Sc Ac trans]
+30.3 +21.3 59 +38 +47 очень
душно
1013.3 997.5
06 10.09 Ю 2 18 км 6/3 1500 м
[Sc Ci fib]
+32.0 +18.9 46 +37 +43 очень
душно
1011.3 995.6
09 10.09 Ю 1 18 км 8/0
[Ci fib]
+29.3 +19.6 56 +35 +36 очень
душно
1011.4 995.7
12 10.09 штиль 0 13 км 6/0
[Ci fib]
+24.3 +20.8 81 +30 +30 очень
душно
1013.8 997.8 +32.6 0.0
15 10.09 ЮВ 1 10 км 8/0
[Ci fib]
+23.7 +21.2 86 +30 +30 очень
душно
1013.7 997.7
18 10.09 штиль 0 6000 м дымка 8/0
[Ac trans]
+21.9 +20.7 93 +28 +28 душно 1013.7 997.5
21 10.09 В 1 5000 м дымка 8/5 1000 м
[Sc Ac trans]
+21.7 +20.5 93 +27 +27 душно 1014.0 997.8
00 11.09 В 1 5000 м в посл. час дождь 10/8 1000 м
[Sc As op]
+22.9 +21.5 92 +31 +31 очень
душно
1015.7 999.5 +21.3 0.9
03 11.09 В 1 11 км слаб. дождь 10/9 600 м
[Sc As op]
+21.8 +20.0 90 +27 +28 душно 1016.2 999.9
06 11.09 В 4 20 км 9/9 1000 м
[Sc]
+24.1 +19.5 75 +29 +30 душно 1015.4 999.4
09 11.09 ЮВ 4 20 км 10/10 1500 м
[Sc As op]
+23.2 +18.0 73 +29 +29 душно 1016.2 1000.1
12 11.09 ЮВ 4 20 км 9/9 1500 м
[Sc]
+21.8 +17.1 75 +26 +26 душно 1018.4 1002.1 +24.6 0.0
15 11.09 ЮВ 3 20 км 9// 600 м
[Sc]
+21.7 +17.0 75 +26 +26 душно 1018.4 1002.1
18 11.09 В 1 20 км 10/8 1000 м
[Sc As op]
+21.2 +16.7 75 +25 +25 комфорт 1018.1 1001.8
21 11.09 В 1 20 км 8/6 1500 м
[Sc Ac trans]
+20.1 +14.6 71 +24 +24 комфорт 1019.1 1002.6
00 12.09 В 5 20 км 9/4 1000 м
[Sc Ac trans]
+20.8 +13.7 64 +23 +24 комфорт 1019.6 1003.2 +19.7 0.0
03 12.09 В 2 20 км 10/6 1000 м
[Sc As op]
+21.7 +14.0 62 +25 +26 комфорт 1019.4 1003.1
06 12.09 В 2 20 км слаб. дождь 10/8 1000 м
[Sc As op]
+20.7 +16.3 76 +25 +25 комфорт 1018.0 1001.6
09 12.09 В 1 20 км 10/0
[As op]
+19.7 +15.3 76 +23 +23 комфорт 1017.5 1001.0
12 12.09 В 3 20 км 10/6 1000 м
[Sc As op]
+19.5 +14.9 75 +22 +22 комфорт 1018.1 1001.7 +21.9 0.0
15 12.09 штиль 0 20 км 10/4 1000 м
[Sc As op]
+17.6 +15.4 87 +18 +18 1017.4 1000.9
18 12.09 С 1 20 км 5/5 1500 м
[Sc]
+15.7 +14.7 94 +16 +16 1016.8 1000.1
21 12.09 штиль 0 19 км 3/3 1000 м
[Sc]
+14.6 +13.8 95 +14 +14 1016.9 1000.2
00 13.09 Ю 1 20 км ясно +20.2 +15.4 74 +24 +31 комфорт 1016.7 1000.3 +14.5 0.0
03 13.09 20 км н/о +24.0 +14.6 56 +27 +35 жарко 1014.6 998.6
06 13.09 ЮВ 5 20 км 5/5 1500 м
[Sc]
+25.1 +14.8 53 +28 +30 жарко 1013.3 997.2
09 13.09 В 2 20 км ясно +23.7 +14.3 56 +26 +27 жарко 1013.5 997.5
12 13.09 В 1 20 км ясно +20.1 +14.4 70 +23 +23 комфорт 1014.9 998.5
15 13.09 ЮВ 1 20 км ясно +16.9 +14.7 87 +18 +18 1014.4 997.9
18 13.09 С 1 8000 м дымка ясно +15.1 +14.1 94 +16 +16 1014.1 997.4
21 13.09 ЮВ 1 1400 м дымка 9// 200 м
[St]
+14.8 +14.1 96 +15 +15 1014.0 997.3
00 14.09 З 1 19 км 4/4 600 м
[Sc]
+16.6 +14.7 89 +17 +22 1014.4 997.8 +14.8
03 14.09 З 2 20 км 8/6 1000 м
[Sc Ac trans]
+24.3 +14.9 56 +27 +31 жарко 1012.0 996.0
06 14.09 З 2 20 км 9/9 1000 м
[Sc]
+25.0 +17.4 63 +29 +30 душно 1010.2 994.2
09 14.09 20 км н/о +24.5 +18.6 70 +29 +29 душно 1010.0 994.1
12 14.09 С 1 20 км 8/8 1000 м
[Sc]
+23.0 +19.7 82 +30 +30 очень
душно
1011.8 995.7 +26.7
15 14.09 20 км н/о +21.6 +19.3 87 +27 +27 душно 1011.9 995.7
18 14.09 штиль 0 19 км 8/3 1000 м
[Sc Ci fib]
+19.8 +18.6 93 +22 +22 комфорт 1011.1 994.7
21 14.09 штиль 0 19 км 9// 1000 м
[Sc]
+20.2 +18.8 92 +23 +23 комфорт 1011.5 995.2
00 15.09 Ю 3 20 км 6/6 1500 м
[Sc]
+23.7 +19.2 76 +29 +31 душно 1012.1 996.1 +19.5
03 15.09 20 км н/о +27.3 +19.3 62 +33 +37 очень
душно
1010.9 995.0
06 15.09 В 5 20 км 8/8 1000 м
[Sc]
+27.3 +18.5 59 +32 +33 очень
душно
1009.2 993.4
09 15.09 20 км н/о +23.6 +17.3 68 +27 +28 жарко 1010.2 994.2
12 15.09 В 4 20 км 6/6 1000 м
[Sc]
+21.1 +15.6 71 +24 +24 комфорт 1011.7 995.4 +28.7
15 15.09 20 км н/о +19.8 +15.4 76 +23 +23 комфорт 1011.9 995.5
18 15.09 штиль 0 20 км 8/8 1000 м
[Sc]
+17.7 +15.5 87 +18 +18 1011.1 994.7
21 15.09 20 км н/о +16.8 +14.9 89 +18 +18 1011.5 995.0
00 16.09 ЮВ 3 20 км 6/3 1000 м
[Sc Ac trans]
+20.2 +15.4 74 +23 +26 комфорт 1012.2 995.9 +16.5
03 16.09 ЮЗ 1 19 км 5/3 1000 м
[Sc Ci fib]
+25.7 +13.8 48 +28 +39 жарко 1011.1 995.1
06 16.09 Ю 2 20 км 3/3 1000 м
[Sc]
+27.4 +12.9 41 +29 +35 жарко 1009.6 993.8
09 16.09 В 5 20 км 1/1 1500 м
[Sc]
+25.6 +13.1 46 +28 +28 жарко 1010.6 994.6
12 16.09 В 1 20 км ясно +20.9 +11.7 56 +24 +24 комфорт 1012.9 996.6 +27.7
15 16.09 В 1 20 км 8/0
[Ac trans Ci fib]
+17.3 +12.8 75 +18 +18 1014.3 997.8
18 16.09 штиль 0 20 км ясно +13.8 +12.5 92 +13 +13 1014.9 998.2

 

Местоположение метеостанции Андон (Корея): широта 36.57 долгота 128.71 высота над уровнем моря 141 м.

В архиве по умолчанию представлена погода в Андоне за последнюю неделю. Архивные данные за месяц целиком и за предыдущие месяцы, начиная с января 2011 года, Вы можете получить, выбрав интересующий диапазон дат из раскрывающегося списка и нажав кнопку "Ввод!".


*Определитесь, кто Вы:
робот инопланетянин человек

Внимание! Время в таблицах - всемирное. Для получения местного времени необходимо прибавить поправку, которая равна 9 ч.

Смотрите также архив погоды в соседних городах и на ближайших метеорологических станциях:

Погода в Санджу (Корея) (54 км)
Погода в Куми (Корея) (61 км)
Погода в Йонволе (Корея) (71 км)
Погода на Чупунджнеоне (Корея) (75 км)
Погода в Ульджине (Корея) (77 км)
Погода в Тэгу (Корея) (77 км)
Погода в Пхохане (Корея) (85 км)
Погода в Вонджу (Корея) (108 км)
Погода в Донгхэ (Корея) (110 км)
Погода в Чхонджу (Корея) (113 км)

Пояснения к столбцам:

Ветер - указаны скорость ветра в м/с - средняя за 10 мин, порывы в срок и между сроками (в фигурных скобках) и направление, откуда дует ветер: С - северный, СВ - северо-восточный, В - восточный, ЮВ - юго-восточный, Ю - южный, ЮЗ - юго-западный, З - западный, СЗ - северо-западный.
Видимость - горизонтальная дальность видимости в метрах или километрах. При видимости от 1 до 10 км при отсутствии осадков обычно наблюдается дымка, при ухудшении видимости до 1 км и менее - туман. В сухую погоду видимость может ухудшаться дымом, пылью или мглою.
Явления - указаны атмосферные явления, наблюдавшиеся в срок или в последний час перед сроком; фигурными скобками обозначены явления, наблюдавшиеся между сроками (за 1-3 часа до срока); квадратными скобками обозначены град или гололедные отложения с указанием их диаметра в мм.
Облачность - указаны через наклонную черту общая и нижняя облачность в баллах и высота нижней границы облаков в метрах; квадратными скобками обозначены формы облаков: Ci - перистые, Cs - перисто-слоистые, Cc - перисто-кучевые, Ac - высококучевые, As - высокослоистые, Sc - слоисто-кучевые, Ns - слоисто-дождевые, Cu - кучевые, Cb - кучево-дождевые. Подробнее классификацию облаков см. в Атласе облаков (PDF).
T - Температура воздуха - температура, измеренная на высоте 2 м над землей.
Td - Температура точки росы - температура, при понижении до которой содержащийся в воздухе водяной пар достигнет насыщения.
f - Относительная влажность воздуха - влажноcть воздуха, измеренная на высоте 2 м над землей.
Te - Эффективная температура - температура, которую ощущает одетый по сезону человек в тени. Характеристика душности погоды. При расчете учитывается влияние влажности воздуха и скорости ветра на теплоощущения человека.
Tes - Эффективная температура на солнце - температура, которую ощущает человек, с поправкой на солнечный нагрев. Характеристика знойности погоды. Зависит от высоты солнца над горизонтом, облачности и скорости ветра. Ночью, в пасмурную погоду, а также при ветре 12 м/с и более поправка равна нулю.
P - Атмосферное давление - приведенное к уровню моря атмосферное давление.
Po - Атмосферное давление - измеренное на уровне метеостанции атмосферное давление.
Tmin - Минимальная температура - минимум температуры воздуха на высоте 2 м над землей.
Tmax - Максимальная температура - максимум температуры воздуха на высоте 2 м над землей.
R - Количество осадков - Количество выпавших осадков за период времени, мм. При наведении курсора мыши на число - период времени, за который выпало указанное количество осадков.
R24 - Количество осадков - Количество выпавших осадков за 24 часа, мм.
S - Снежный покров - Высота снежного покрова, см. При наведении курсора мыши на число - состояние снежного покрова и степень покрытия местности в баллах.